(602) Marianna
ephemeris date magn radius delta ra dec elong phase
Today18 Jun 202615.33.852 AU3.719 AU11h29m-07°57'89.8°15.3°
Opposition11 May 202714.03.646 AU2.682 AU14h46m-37°28'159.6°5.5°
(602) Marianna - 2026-06-18
astro.vanbuitenen.nl


 
-1 year
-1 month
-1 day
Now
+1 day
+1 month
+1 year

The interactive orbit chart above shows the body's path through the solar system and its position at the given date. Green and blue lines are shown perpendicular to the ecliptic plane: Green if the path is above the ecliptic plane, blue if it is below. (Left-click and drag to rotate the view; Right-click and drag to move the view; Use scroll wheel to zoom in our out.)

The orbital elements of Marianna are:

            e (Eccentricity)                : 0.2519111
            a (Semimajor axis)              : 3.0799419
            i (Inclination)                 : 15.11636
            Ω (Longitude of ascending node) : 331.38799
            ω (Argument of perihelion)      : 45.54286
            M (Mean anomaly)                : 171.68733
            Epoch                           : 2026 Jun 09

            L (Longitude of perihelion)     : 15.92208
            B (Latitude of perihelion)      : 10.72750
            P (Orbital period in years)     : 5.41            
        

The light curve chart below shows the estimated development of the minor planet's magnitude.


The all-sky chart below shows the path of the minor planet over the same period as the light curve. The current position is marked yellow.





The following chart shows the path of the minor planet in the next few days. The field of view is optimized for (~10x50) binoculars and finderscopes.




Ephemerides:
Date       Time       RA (2000)    DEC (2000)    delta   radius  elong  phase   PA    magn
2026-06-18 00:00 UT   11 29 54.1   -07 57 58     3.719    3.852   89.8   15.3   114   15.3 
2026-06-18 00:30 UT   11 29 54.7   -07 57 60     3.719    3.852   89.8   15.3   114   15.3 
2026-06-19 00:00 UT   11 30 20.5   -07 59 39     3.734    3.853   89.0   15.3   114   15.3 
2026-06-20 00:00 UT   11 30 47.7   -08 01 26     3.749    3.853   88.2   15.3   114   15.3 
2026-06-21 00:00 UT   11 31 15.7   -08 03 18     3.763    3.853   87.4   15.3   114   15.3 
2026-06-22 00:00 UT   11 31 44.3   -08 05 15     3.778    3.853   86.6   15.3   114   15.3 
2026-06-23 00:00 UT   11 32 13.7   -08 07 18     3.793    3.853   85.7   15.2   114   15.3 
2026-06-24 00:00 UT   11 32 43.8   -08 09 26     3.808    3.853   84.9   15.2   115   15.3 
2026-06-25 00:00 UT   11 33 14.6   -08 11 39     3.823    3.854   84.1   15.2   115   15.3 
2026-06-26 00:00 UT   11 33 46.0   -08 13 57     3.838    3.854   83.3   15.2   115   15.3 
2026-06-27 00:00 UT   11 34 18.2   -08 16 20     3.852    3.854   82.5   15.2   115   15.3 
2026-06-28 00:00 UT   11 34 51.0   -08 18 48     3.867    3.854   81.7   15.1   115   15.4 
2026-06-29 00:00 UT   11 35 24.4   -08 21 21     3.882    3.854   80.9   15.1   115   15.4 
2026-06-30 00:00 UT   11 35 58.5   -08 23 59     3.896    3.854   80.1   15.1   115   15.4 
2026-07-01 00:00 UT   11 36 33.3   -08 26 42     3.911    3.854   79.3   15.0   116   15.4 
2026-07-02 00:00 UT   11 37 08.6   -08 29 30     3.925    3.855   78.6   15.0   116   15.4 
2026-07-03 00:00 UT   11 37 44.6   -08 32 22     3.940    3.855   77.8   14.9   116   15.4 
2026-07-04 00:00 UT   11 38 21.2   -08 35 20     3.954    3.855   77.0   14.9   116   15.4 
2026-07-05 00:00 UT   11 38 58.4   -08 38 22     3.969    3.855   76.2   14.8   116   15.4 
2026-07-06 00:00 UT   11 39 36.2   -08 41 28     3.983    3.855   75.4   14.8   116   15.4 
2026-07-07 00:00 UT   11 40 14.6   -08 44 40     3.997    3.855   74.7   14.7   116   15.4 
2026-07-08 00:00 UT   11 40 53.6   -08 47 55     4.011    3.855   73.9   14.7   117   15.4 
2026-07-09 00:00 UT   11 41 33.1   -08 51 16     4.026    3.855   73.1   14.6   117   15.4 
2026-07-10 00:00 UT   11 42 13.3   -08 54 41     4.040    3.855   72.4   14.6   117   15.4 
2026-07-11 00:00 UT   11 42 53.9   -08 58 10     4.054    3.855   71.6   14.5   117   15.4 
2026-07-12 00:00 UT   11 43 35.2   -09 01 44     4.068    3.855   70.8   14.4   117   15.4 
2026-07-13 00:00 UT   11 44 16.9   -09 05 23     4.081    3.855   70.1   14.4   117   15.4 
2026-07-14 00:00 UT   11 44 59.2   -09 09 06     4.095    3.856   69.3   14.3   118   15.5 
2026-07-15 00:00 UT   11 45 42.0   -09 12 53     4.109    3.856   68.6   14.2   118   15.5 
2026-07-16 00:00 UT   11 46 25.4   -09 16 44     4.123    3.856   67.8   14.1   118   15.5 
2026-07-17 00:00 UT   11 47 09.2   -09 20 40     4.136    3.856   67.1   14.1   118   15.5 
2026-07-18 00:00 UT   11 47 53.6   -09 24 40     4.150    3.856   66.3   14.0   118   15.5 


    Terminology:
            
    delta:  distance between minor planet and earth in AU
    radius: distance between minor planet and sun in AU
    magn:   magnitude (brightness) estimate    
    ra:     right ascension in hours (24h = 360deg)
    dec:    declination in degrees
    elong:  elongation in degrees (angle sun-earth-minor planet)    
    phase:  phase angle in degrees (angle sun-minor planet-earth)        
    AU:     Astronomical Unit (mean distance between earth and sun: 149597870.7 km
    

Orbital elements provided by the MPC (Minor Planet Center).
Calculations by a modified version of AAPlus, a C# implementation of the AA+ project by PJ Naughter from the algorithms presented in the book "Astronomical Algorithms" by Jean Meeus.
NGC2000 dso catalog and star labels from VizieR as provided by the Strasbourg astronomical Data Center.
Tycho2 catalog from the ESO archive.